FW6687 Weather Reports


time (UTC)temp
C
wind
direction
speed
KPH
gust
KPH
rain 1hr
cm
rain 24hr
cm
rain mn
cm
humidity
%
barometer
mb
20260510210027 -17 0.0 0.0 0.00 0.00 0.00 1012.7
20260510204531 -17 0.0 0.0 0.00 0.00 0.00 1012.4
20260510203030 -17 0.0 0.0 0.00 0.00 0.00 1012.4
20260510201530 -17 0.0 0.0 0.00 0.00 0.00 1012.0
20260510200030 -17 0.0 0.0 0.00 0.00 0.00 1011.7
20260510194531 -17 0.0 0.0 0.00 0.00 0.00 1011.4
20260510193030 -17 0.0 0.0 0.00 0.00 0.00 1011.2
20260510191528 -17 0.0 0.0 0.00 0.00 0.00 1011.1
20260510190030 -17 0.0 0.0 0.00 0.00 0.00 1011.0
20260510184530 -17 0.0 0.0 0.00 0.00 0.00 1010.9
20260510183034 23 14.5 32.2 0.00 0.00 0.00 50 1010.9
20260510181529 23 248 16.1 38.6 0.00 0.00 0.00 49 1010.8
20260510180031 23 177 9.7 29.0 0.00 0.00 0.00 48 1010.7
20260510174528 24 138 14.5 27.4 0.00 0.00 0.00 47 1010.6
20260510173027 24 163 9.7 32.2 0.00 0.00 0.00 48 1010.4
20260510171530 25 224 12.9 30.6 0.00 0.00 0.00 47 1010.4
20260510170029 25 158 19.3 30.6 0.00 0.00 0.00 46 1010.5
20260510164537 25 216 12.9 33.8 0.00 0.00 0.00 46 1010.3
20260510163028 26 99 3.2 27.4 0.00 0.00 0.00 45 1010.4
20260510161527 26 136 9.7 24.1 0.00 0.00 0.00 44 1010.4
20260510160028 25 152 9.7 38.6 0.00 0.00 0.00 44 1010.4
20260510154532 26 89 3.2 24.1 0.00 0.00 0.00 45 1010.4
20260510153030 26 241 11.3 30.6 0.00 0.00 0.00 44 1010.6
20260510151533 26 158 11.3 27.4 0.00 0.00 0.00 45 1010.9
20260510150031 26 125 9.7 25.7 0.00 0.00 0.00 46 1010.9
20260510144547 26 166 12.9 33.8 0.00 0.00 0.00 44 1010.9
20260510143030 26 108 11.3 25.7 0.00 0.00 0.00 44 1011.0
20260510141531 26 82 8.0 27.4 0.00 0.00 0.00 44 1011.1
20260510140030 26 316 6.4 19.3 0.00 0.00 0.00 45 1011.3
20260510134530 26 33 4.8 22.5 0.00 0.00 0.00 44 1011.5
20260510133028 25 163 6.4 17.7 0.00 0.00 0.00 47 1011.8
20260510131529 25 273 14.5 40.2 0.00 0.00 0.00 52 1011.7
20260510130029 25 115 12.9 27.4 0.00 0.00 0.00 50 1011.8
20260510124531 23 128 11.3 24.1 0.00 0.00 0.00 65 1012.0
20260510123030 23 115 8.0 19.3 0.00 0.00 0.00 67 1012.7
20260510121529 22 63 3.2 16.1 0.00 0.00 0.00 68 1013.1
20260510120037 22 49 8.0 16.1 0.00 0.00 0.00 72 1013.2
20260510114527 22 76 6.4 19.3 0.00 0.00 0.00 68 1013.4
20260510113030 22 117 8.0 19.3 0.00 0.00 0.00 64 1013.5
20260510111527 23 123 9.7 19.3 0.00 0.00 0.00 62 1013.7
20260510110031 24 115 6.4 11.3 0.00 0.00 0.00 58 1013.8
20260510104529 23 73 1.6 12.9 0.00 0.00 0.00 59 1014.0
20260510103027 23 120 3.2 11.3 0.00 0.00 0.00 60 1014.1
20260510101528 22 103 4.8 11.3 0.00 0.00 0.00 60 1014.2
20260510100105 22 114 4.8 12.9 0.00 0.00 0.00 62 1014.2
20260510094537 22 160 3.2 9.7 0.00 0.00 0.00 63 1014.3
20260510093030 21 96 1.6 11.3 0.00 0.00 0.00 66 1014.6
20260510091529 21 159 4.8 8.0 0.00 0.00 0.00 67 1014.6
20260510090028 21 120 1.6 9.7 0.00 0.00 0.00 69 1014.6
20260510084530 21 102 0.0 4.8 0.00 0.00 0.00 69 1015.0
20260510083030 19 104 1.6 6.4 0.00 0.00 0.00 73 1014.9
20260510081530 18 112 1.6 4.8 0.00 0.00 0.00 77 1014.7
20260510080032 18 116 4.8 8.0 0.00 0.00 0.00 77 1015.0
20260510074534 -17 0.0 0.0 0.00 0.00 0.00 1015.1
20260510073028 -17 0.0 0.0 0.00 0.00 0.00 1015.2
20260510071530 -17 0.0 0.0 0.00 0.00 0.00 1015.2
20260510070028 -17 0.0 0.0 0.00 0.00 0.00 1014.9
20260510064531 -17 0.0 0.0 0.00 0.00 0.00 1015.1
20260510063029 -17 0.0 0.0 0.00 0.00 0.00 1014.7
20260510061536 -17 0.0 0.0 0.00 0.00 0.00 1015.0
20260510060044 -17 0.0 0.0 0.00 0.00 0.00 1014.6
20260510054530 -17 0.0 0.0 0.00 0.00 0.00 1014.4
20260510053032 -17 0.0 0.0 0.00 0.00 0.00 1014.4
20260510051530 -17 0.0 0.0 0.00 0.00 0.00 1014.4
20260510050029 -17 0.0 0.0 0.00 0.00 0.00 1014.4
20260510044527 -17 0.0 0.0 0.00 0.00 0.00 1014.4
20260510043030 -17 0.0 0.0 0.00 0.00 0.00 1014.4
20260510041531 -17 0.0 0.0 0.00 0.00 0.00 1014.3
20260510040030 -17 0.0 0.0 0.00 0.00 0.00 1014.2
20260510034530 -17 0.0 0.0 0.00 0.00 0.00 1014.2
20260510033028 -17 0.0 0.0 0.00 0.00 0.00 1014.0
20260510031538 -17 0.0 0.0 0.00 0.00 0.00 1013.9
20260510030030 -17 0.0 0.0 0.00 0.00 0.00 1013.9
20260510024535 -17 0.0 0.0 0.00 0.00 0.00 1013.9
20260510023042 -17 0.0 0.0 0.00 0.00 0.00 1013.8
20260510021530 -17 0.0 0.0 0.00 0.00 0.00 1013.8
20260510020028 -17 0.0 0.0 0.00 0.00 0.00 1013.8
20260510014532 -17 0.0 0.0 0.00 0.00 0.00 1013.7
20260510013027 -17 0.0 0.0 0.00 0.00 0.00 1013.7
20260510011530 -17 0.0 0.0 0.00 0.00 0.00 1013.8
20260510010032 -17 0.0 0.0 0.00 0.00 0.00 1013.9
20260510004532 -17 0.0 0.0 0.00 0.00 0.00 1014.1
20260510003028 -17 0.0 0.0 0.00 0.00 0.00 1014.2
20260510001530 -17 0.0 0.0 0.00 0.00 0.00 1014.2
20260510000029 -17 0.0 0.0 0.00 0.00 0.00 1014.2
20260509234527 -17 0.0 0.0 0.00 0.00 0.00 1014.5
20260509233031 -17 0.0 0.0 0.00 0.00 0.00 1014.6
20260509231530 -17 0.0 0.0 0.00 0.00 0.00 1014.6
20260509230030 -17 0.0 0.0 0.00 0.00 0.00 1014.6
20260509224528 -17 0.0 0.0 0.00 0.00 0.00 1014.7
20260509223029 -17 0.0 0.0 0.00 0.00 0.00 1014.7
20260509221532 -17 0.0 0.0 0.00 0.00 0.00 1014.6
20260509220030 -17 0.0 0.0 0.00 0.00 0.00 1014.5
20260509214530 -17 0.0 0.0 0.00 0.00 0.00 1014.5
20260509213028 -17 0.0 0.0 0.00 0.00 0.00 1014.3
20260509211549 -17 0.0 0.0 0.00 0.00 0.00 1014.3